Starlink 3151

operational
NORAD ID: 49408 Int'l Des: 2021-104 Owner: SPXS Country: US Constellation: starlink
LEOCIRCULAR

About Starlink 3151

Description loading...

Live Position

Loading 3D Globe...

Upcoming Passes

Altitude History

Altitude vs Time

uPlot chart will show altitude changes over time

Two-Line Element Set

1 49408U 21104A 25303.68361998 .00000847 00000-0 71292-4 0 9990
2 49408 53.2178 92.7688 0001230 86.8277 273.2856 15.08844872219009
Epoch: Oct 30, 2025 • Age: 25 hours

Current Status

Altitude 539.6 km
Velocity 7.60 km/s
Sub-Earth Point 13.52°N, 36.96°W
Launch Date Nov 13, 2021
Age 3.9 years
Type internet

Technical Details

Classification Payload
Mass 290.00 kg
Dry Mass 270.00 kg
Total Mass 290.00 kg
Length 0.20 m
Diameter 2.80 m
Span 9.00 m
Shape Box + pan
Manufacturer SPXS
Bus Type Starlink
Phase Status In Orbit
Owner/State SPXS/US

Large Constellations

Loading constellations...